Megeve, France 16 day weather forecast

Slopes altitude range 850 m - 2355m

Number of lifts: 84 Pistes: 325km

In some cases the lift and piste totals shown are for the ski domain (e.g. Three Valleys) rather than individual resort (e.g. Courchevel)

Overview

The 16 day weather forecast is fully updated 4 times every day.

    • Wed 26 JUN 2019
    • Wed 26
    • 23C 31C
    • Thu 27 JUN 2019
    • Thu 27
    • 23C 32C
    • Fri 28 JUN 2019
    • Fri 28
    • 22C 29C
    • Sat 29 JUN 2019
    • Sat 29
    • 20C 28C
    • Sun 30 JUN 2019
    • Sun 30
    • 20C 28C
    • Mon 01 JUL 2019
    • Mon 01
    • 21C 29C
    • Tue 02 JUL 2019
    • Tue 02
    • 17C 24C
    • Wed 03 JUL 2019
    • Wed 03
    • 16C 24C
    • Thu 04 JUL 2019
    • Thu 04
    • 14C 20C
    • Fri 05 JUL 2019
    • Fri 05
    • 15C 20C
    • Sat 06 JUL 2019
    • Sat 06
    • 10C 13C
    • Sun 07 JUL 2019
    • Sun 07
    • 11C 20C
    • Mon 08 JUL 2019
    • Mon 08
    • 16C 23C
    • Tue 09 JUL 2019
    • Tue 09
    • 15C 20C
    • Wed 10 JUL 2019
    • Wed 10
    • 15C 18C
    • Thu 11 JUL 2019
    • Thu 11
    • 15C 22C

Date:

Time Type 0°C level Temp Chill Snow Cloud Speed Gust Dir Press
3:00 4638m 17°C 17_3 0cm 98% 3mph 4mph 1024mB
6:00 4616m 17°C 17_3 0cm 84% 3mph 3mph 1025mB
9:00 4614m 23°C 23_2 0cm 1% 2mph 2mph 1024mB
12:00 4649m 31°C 31_5 0cm 0% 5mph 3mph 1024mB
15:00 4655m 31°C 31_5 0cm 0% 5mph 5mph 1023mB
18:00 4653m 31°C 31_4 0cm 0% 4mph 5mph 1024mB
21:00 4649m 19°C 19_8 0cm 44% 8mph 7mph 1025mB
0:00 4632m 18°C 18_6 0cm 45% 6mph 6mph 1025mB
3:00 4604m 19°C 19_5 0cm 0% 5mph 5mph 1024mB
6:00 4581m 18°C 18_3 0cm 0% 3mph 4mph 1024mB
9:00 4589m 23°C 23_3 0cm 0% 3mph 4mph 1023mB
12:00 4616m 32°C 32_6 0cm 0% 6mph 11mph 1021mB
15:00 4652m 32°C 32_7 0cm 0% 7mph 10mph 1020mB
18:00 4619m 32°C 32_3 0cm 0% 3mph 4mph 1019mB
21:00 4624m 20°C 20_4 0cm 0% 4mph 4mph 1022mB
0:00 4587m 18°C 18_3 0cm 0% 3mph 4mph 1021mB
3:00 4564m 17°C 17_3 0cm 0% 3mph 4mph 1021mB
6:00 4553m 17°C 17_2 0cm 0% 2mph 3mph 1020mB
9:00 4562m 22°C 22_5 0cm 0% 5mph 5mph 1019mB
12:00 4631m 29°C 29_7 0cm 0% 7mph 8mph 1017mB
15:00 4741m 29°C 29_6 0cm 0% 6mph 7mph 1016mB
18:00 4778m 29°C 29_3 0cm 0% 3mph 4mph 1017mB
21:00 4837m 17°C 17_3 0cm 0% 3mph 3mph 1019mB
0:00 4888m 16°C 16_3 0cm 0% 3mph 3mph 1019mB
3:00 4868m 15°C 15_3 0cm 0% 3mph 4mph 1018mB
6:00 4870m 15°C 15_2 0cm 0% 2mph 2mph 1018mB
9:00 4900m 20°C 20_3 0cm 0% 3mph 3mph 1018mB
12:00 4853m 28°C 28_5 0cm 0% 5mph 5mph 1017mB
15:00 4871m 28°C 28_5 0cm 0% 5mph 5mph 1016mB
18:00 4823m 28°C 28_2 0cm 0% 2mph 2mph 1017mB
21:00 4791m 18°C 18_4 0cm 0% 4mph 5mph 1019mB
0:00 4808m 17°C 17_5 0cm 0% 5mph 5mph 1019mB
3:00 4707m 16°C 16_4 0cm 0% 4mph 5mph 1019mB
6:00 4649m 16°C 16_4 0cm 0% 4mph 4mph 1020mB
9:00 4657m 20°C 20_3 0cm 0% 3mph 2mph 1020mB
12:00 4650m 28°C 28_5 0cm 0% 5mph 4mph 1019mB
15:00 4577m 29°C 29_5 0cm 0% 5mph 5mph 1018mB
18:00 4559m 29°C 29_2 0cm 0% 2mph 3mph 1018mB
21:00 4530m 18°C 18_4 0cm 0% 4mph 5mph 1020mB
0:00 4501m 18°C 18_6 0cm 4% 6mph 6mph 1020mB
3:00 4517m 17°C 17_3 0cm 45% 3mph 3mph 1019mB
6:00 4392m 16°C 16_2 0cm 22% 2mph 2mph 1020mB
9:00 4447m 21°C 21_2 0cm 72% 2mph 3mph 1019mB
12:00 4407m 29°C 29_5 0cm 52% 5mph 4mph 1017mB
15:00 4421m 29°C 29_7 0cm 1% 7mph 6mph 1016mB
18:00 4300m 29°C 29_3 0cm 20% 3mph 4mph 1018mB
21:00 4338m 16°C 16_3 0cm 100% 3mph 4mph 1020mB
0:00 4275m 15°C 15_5 0cm 98% 5mph 6mph 1019mB
3:00 4266m 13°C 13_3 0cm 83% 3mph 3mph 1018mB
6:00 4225m 13°C 13_1 0cm 59% 1mph 1mph 1019mB
9:00 4194m 17°C 17_4 0cm 70% 4mph 2mph 1017mB
12:00 4194m 24°C 24_6 0cm 84% 6mph 6mph 1017mB
15:00 4234m 23°C 23_4 0cm 65% 4mph 4mph 1016mB
18:00 4160m 23°C 23_4 0cm 82% 4mph 5mph 1017mB
21:00 4164m 15°C 15_1 0cm 100% 1mph 2mph 1018mB
0:00 4080m 14°C 14_1 0cm 100% 1mph 2mph 1018mB
3:00 3914m 14°C 14_1 0cm 100% 1mph 1mph 1018mB
6:00 3908m 13°C 13_2 0cm 96% 2mph 2mph 1018mB
9:00 3953m 16°C 16_4 0cm 11% 4mph 3mph 1017mB
12:00 4031m 24°C 24_5 0cm 37% 5mph 4mph 1016mB
15:00 4098m 18°C 18_3 0cm 97% 3mph 5mph 1016mB
18:00 4143m 18°C 18_2 0cm 98% 2mph 3mph 1016mB
21:00 4022m 11°C 11_4 0cm 100% 4mph 5mph 1018mB
0:00 3985m 11°C 11_7 0cm 99% 7mph 8mph 1018mB
3:00 4021m 10°C 10_7 0cm 44% 7mph 8mph 1018mB
6:00 3996m 9°C 9_3 0cm 27% 3mph 3mph 1018mB
9:00 4041m 14°C 14_4 0cm 19% 4mph 4mph 1017mB
12:00 4055m 20°C 20_5 0cm 45% 5mph 5mph 1017mB
15:00 4065m 20°C 20_5 0cm 54% 5mph 5mph 1016mB
18:00 4140m 20°C 20_3 0cm 49% 3mph 4mph 1016mB
21:00 4077m 11°C 11_4 0cm 20% 4mph 5mph 1018mB
0:00 4177m 10°C 10_6 0cm 40% 6mph 7mph 1018mB
3:00 4096m 10°C 10_7 0cm 47% 7mph 9mph 1018mB
6:00 4015m 10°C 10_7 0cm 73% 7mph 8mph 1018mB
9:00 3972m 15°C 15_5 0cm 44% 5mph 9mph 1018mB
12:00 4042m 20°C 20_6 0cm 27% 6mph 8mph 1017mB
15:00 4119m 20°C 20_6 0cm 49% 6mph 9mph 1016mB
18:00 4183m 20°C 20_5 0cm 61% 5mph 6mph 1017mB
21:00 4151m 10°C 10_8 0cm 100% 8mph 9mph 1020mB
0:00 3999m 10°C 10_7 0cm 62% 7mph 8mph 1020mB
Afternoon 0.125mm 0.3125 3837m 13°C 13_5 0cm 94% 5mph 5mph 1019mB
Morning 0mm 0 4606m 5°C 5_4 0cm 2% 4mph 5mph 1022mB
Afternoon 0mm 0 4569m 20°C 20_6 0cm 0% 6mph 6mph 1020mB
Morning 0mm 0 4497m 11°C 11_6 0cm 17% 6mph 7mph 1020mB
Afternoon 0mm 0.0625 4431m 23°C 23_5 0cm 27% 5mph 6mph 1016mB
Morning 0.0625mm 0.1875 4395m 12°C 12_6 0cm 18% 6mph 7mph 1018mB
Afternoon 0.1875mm 0.5625 4286m 20°C 20_4 0cm 2% 4mph 5mph 1016mB
Morning 0.770833mm 2.3125 4197m 11°C 11_1 0cm 81% 1mph 2mph 1019mB
Afternoon 0.791667mm 2.4375 4176m 18°C 18_4 0cm 90% 4mph 4mph 1016mB
Morning 0.0625mm 0.1875 4156m 11°C 11_5 0cm 67% 5mph 6mph 1016mB
Afternoon 0.166667mm 0.4375 4129m 22°C 22_6 0cm 66% 6mph 7mph 1012mB
Morning 0.895833mm 1.125 3755m 9°C 9_3 0cm 90% 3mph 4mph 1011mB

16 day outlook at a glance

Forecast issued: 6/26/2019 8:06:07 AM

Chat

Your comments and questions. In a resort? Let us know what it's like!


Characters left 250

For terms and conditions see Readers Comments on the Cookie and privacy policy page.